Regional Weather Roundup
Issued by NWS Upton, NY

Current Version | Previous Version | Text Only | Print | Product List | Glossary On
Versions: 1 2 3 4 5 6 7 8 9 10 11 12 13 14 15 16 17 18 19 20 21 22 23 24 25 26 27 28 29 30 31 32 33 34 35 36 37 38 39 40 41 42 43 44 45 46 47 48 49 50
000
ASUS41 KOKX 210408
RWROKX

REGIONAL WEATHER ROUNDUP
NATIONAL WEATHER SERVICE NEW YORK NY
1200 AM EDT TUE APR 21 2015

NOTE: "FAIR" INDICATES FEW OR NO CLOUDS BELOW 12,000 FEET WITH NO
SIGNIFICANT WEATHER AND/OR OBSTRUCTIONS TO VISIBILITY.

NYZ071-072-176-178-NJZ106-104-210500-
NEW YORK CITY METRO AREA


CITY           SKY/WX    TMP DP  RH WIND       PRES   REMARKS
CENTRAL PARK   FOG       52  52 100 E8        29.61F VSB 3/4
LAGUARDIA APRT FOG       51  50  96 E9        29.59F VSB 1/4
KENNEDY INTL   FOG       53  51  93 E8        29.62F VSB 1/8
NEWARK/LIBERTY FOG       53  53 100 NE5       29.58F THUNDER VSB 1/2
BRNX BOT. GARD   N/A     50  50 100 NE3       29.61F
TETERBORO      FOG       54  53  97 E3        29.58F VSB 1/2
$$

NYZ177-179-078>081-210500-
LONG ISLAND NEW YORK

CITY           SKY/WX    TMP DP  RH WIND       PRES   REMARKS
FARMINGDALE    FOG       54  54 100 SE7       29.63S VSB 1/2
ISLIP          FOG       53  52  96 SE6       29.61F VSB 1/8
SHIRLEY        FOG       52  51  97 SE8       29.65F VSB 1/4
WESTHAMPTON    FOG       55  55 100 S8        29.66F VSB 1/2
MONTAUK POINT    N/A     51  49  92 S7G18     29.67S
$$

NYZ052-065-067-210500-
HUDSON VALLEY

CITY           SKY/WX    TMP DP  RH WIND       PRES   REMARKS
WHITE PLAINS   FOG       54  53  97 E6        29.60F VSB 1/4
NEWBURGH       FOG       54  54 100 NE7       29.60F VSB 1
MONTGOMERY     LGT RAIN  53  32  44 NE7       29.58F
POUGHKEEPSIE   CLOUDY    56  52  86 E6        29.60F
ALBANY         CLOUDY    52  47  83 CALM      29.62F
$$

NJZ001-105-106-008-010-013-015-019>022-104-210500-
NEW JERSEY

CITY           SKY/WX    TMP DP  RH WIND       PRES   REMARKS
NEWARK/LIBERTY FOG       53  53 100 NE5       29.58F THUNDER VSB 1/2
TETERBORO      FOG       54  53  97 E3        29.58F VSB 1/2
CALDWELL       HVY RAIN  55  54  96 VRB6      29.58F VSB 1/2
MORRISTOWN     CLOUDY    57  54  88 CALM      29.58F VSB 1/2
SOMERVILLE     CLOUDY    57  55  93 CALM      29.54F FOG
SUSSEX         CLOUDY    54  52  93 NE8       29.58F FOG
ANDOVER          N/A     55  54  96 VRB3      29.56F
TRENTON        CLOUDY    58  55  90 SE3       29.54F
MILLVILLE      CLOUDY    67  58  72 SW16G23   29.60R
ATLANTIC CITY  CLOUDY    60  55  83 S10       29.58F
WRIGHTSTOWN    CLOUDY    61  59  93 S8        29.53S
TOMS RIVER     CLOUDY    61  57  88 S10       29.58S
BELMAR         CLOUDY    57  52  82 S6        29.58S
$$

PAZ047>061-062-071-210500-
EASTERN PENNSYLVANIA

CITY           SKY/WX    TMP DP  RH WIND       PRES   REMARKS
PHILADELPHIA   LGT RAIN  63  56  78 SW18      29.58S
ALLENTOWN      CLOUDY    60  58  92 CALM      29.56R FOG
SCRANTON       TSTM      55  54  96 MISG      29.62S VSB 1
$$

CTZ002-004>006-009-010-012-RIZ004-006-007-MAZ004-011-015-210500-
SOUTHERN NEW ENGLAND
 IN CT

CITY           SKY/WX    TMP DP  RH WIND       PRES   REMARKS
BRADLEY INTL   DRIZZLE   50  48  93 N6        29.65F FOG
HARTFORD       CLOUDY    53  52  96 VRB5      29.66F FOG
DANBURY        CLOUDY    54  53  97 E6        29.63F FOG
WTRBRY/OXFORD  CLOUDY    54  48  82 E6        29.65F VSB 1/2
BRIDGEPORT     FOG       51  50  96 E13       29.64F VSB 1/4
MERIDEN        CLOUDY    54  52  93 CALM      29.65F FOG
NEW HAVEN      FOG       53  52  96 E6        29.64F VSB 1/2
CHESTER        FOG       52  52 100 E5        29.66F VSB<1/4
GROTON         FOG       49  49 100 E5        29.67R VSB 1/4
WILLIMANTIC    LGT RAIN  56  54  93 SE3       29.67F FOG

 IN RI

CITY           SKY/WX    TMP DP  RH WIND       PRES   REMARKS
PROVIDENCE     DRIZZLE   53  52  96 S17G23    29.70F FOG
BLOCK ISLAND   CLOUDY    50  46  87 S16G22    29.68S VSB 1/2
WESTERLY       FOG       49  49 100 SE12      29.68F VSB 1/4

 IN MA

CITY           SKY/WX    TMP DP  RH WIND       PRES   REMARKS
BOSTON         LGT RAIN  51  51 100 SE15      29.72F FOG
WORCESTER      LGT RAIN  48  47  96 NE6       29.70F VSB 1/4
WESTFIELD      CLOUDY    49  46  90 N8        29.66F FOG
PROVINCETOWN   CLOUDY   N/A N/A N/A SE22G33   29.76F
NANTUCKET      LGT RAIN  50  49  96 SE21G32   29.77F FOG
$$

ANZ330-335-338-340-345-350-353-355-210500-
COASTAL MARINE OBSERVATIONS


STATION/POSITION TIME  SKY/WX   TEMP    WIND        PRES    VSBY  WAVE
                                AIR SEA DIR/SP/G                  HT/PER
                 (UTC)          (F)     (DEG/KT/KT) (MB)    (MI)  (FT/S)
NY HARB ENTRANCE 0350            47 44  160/  8/ 12 1001.9          8/11
4S FIRE IS       0303               43                N/A           9/10
20S FIRE ISLAND  0250               43              1003.8         10/11
23SW MTP         NOT AVBL
HUDSON CANYON    NOT AVBL
EXECUTION ROCKS  NOT AVBL
WESTERN LI SOUND NOT AVBL
CENTRAL LI SOUND NOT AVBL
EASTERN LI SOUND 0300            46     120/ 12/ 16   N/A
ROBBINS REEF     0300            52      90/  6/  7 1001.3
$$


>>>>>>>>>>>>>>>>>>>>>>>>>>>> KEY <<<<<<<<<<<<<<<<<<<<<<<<<<<
>                                                          <
>     SKY/WX - SKY CONDITION/PRESENT WEATHER               <
>     TMP    - TEMPERATURE IN FAHRENHEIT                   <
>     DP     - DEWPOINT IN FAHRENHEIT                      <
>     RH     - RELATIVE HUMIDITY IN PERCENT                <
>     WIND   - DIRECTION AND SPEED IN MPH                  <
>     PRES   - MEAN SEA LEVEL PRESSURE IN INCHES OF HG     <
>     WCI    - WIND CHILL INDEX                            <
>     VSB    - VISIBILITY IN MILES                         <
>     HX     - HEAT INDEX                                  <
>     TC     - TEMPERATURE IN CELSIUS                      <
>     VRB    - VARIABLE WIND DIRECTION                     <
>                                                          <
>>>>>>>>>>>>>>>>>>>>>>>>>>>> KEY <<<<<<<<<<<<<<<<<<<<<<<<<<<





USA.gov is the U.S. government's official web portal to all federal, state and local government web resources and services.